Regional Weather Roundup
Issued by NWS

Home | Current Version | Previous Version | Graphics & Text | Print | Product List | Glossary On
Versions: 1 2 3 4 5 6 7 8 9 10 11 12 13 14 15 16 17 18 19 20 21 22 23 24 25 26 27 28 29 30 31 32 33 34 35 36 37 38 39 40 41 42 43 44 45 46 47 48 49 50
887
ASUS43 KOAX 281802
RWRNE

WEATHER ROUNDUP FOR NEBRASKA
NATIONAL WEATHER SERVICE OMAHA NE
100 PM CDT SUN MAY 28 2017

NOTES: SATELLITE DATA IS BEING USED TO AUGMENT CLOUD COVER ABOVE
       12000 FEET.
       "FAIR" INDICATES FEW OR NO CLOUDS BELOW 12,000 FEET WITH NO
       SIGNIFICANT WEATHER AND/OR OBSTRUCTIONS TO VISIBILITY.

  * THESE STATIONS DO NOT REPORT WEATHER SUCH AS RAIN...SNOW OR FOG.

NEZ001>004-019>022-054>056-281900-
NEBRASKA PANHANDLE

CITY           SKY/WX    TMP DP  RH WIND       PRES   REMARKS
SCOTTSBLUFF    PTSUNNY   70  41  34 NW15      30.17F
6HR MIN TEMP:  42; 6HR MAX TEMP:  72;

ALLIANCE       SUNNY     70  41  34 N17G24    30.14S
6HR MIN TEMP:  40; 6HR MAX TEMP:  70;

CHADRON        PTSUNNY   68  47  46 N9        30.12F
6HR MIN TEMP:  48; 6HR MAX TEMP:  69;

GORDON         MOCLDY    67  44  42 N13       30.12S
6HR MIN TEMP:  50; 6HR MAX TEMP:  69;

KIMBALL        MOSUNNY   68  35  29 NW13G18   30.22F
SIDNEY         SUNNY     69  40  34 NW13G24   30.19F
6HR MIN TEMP:  43; 6HR MAX TEMP:  69;

$$

NEZ057>060-069>072-079>082-281900-
SOUTHWEST NEBRASKA

CITY           SKY/WX    TMP DP  RH WIND       PRES   REMARKS
NORTH PLATTE   MOSUNNY   75  42  30 NW18G26   30.07S
6HR MIN TEMP:  43; 6HR MAX TEMP:  77;

IMPERIAL       SUNNY     75  36  24 N13G24    30.13F
6HR MIN TEMP:  48; 6HR MAX TEMP:  75;

LEXINGTON      CLOUDY    72  47  39 NW13      30.05S
MCCOOK         MOSUNNY   78  40  25 NW14      30.09S
6HR MIN TEMP:  48; 6HR MAX TEMP:  79;

OGALLALA       MOSUNNY   75  43  31 NW14G24   30.12S
$$

NEZ005>010-023>029-035>040-094-281900-
NORTH CENTRAL NEBRASKA

CITY           SKY/WX    TMP DP  RH WIND       PRES   REMARKS
VALENTINE      SUNNY     73  38  27 NW20G28   30.05R
6HR MIN TEMP:  48; 6HR MAX TEMP:  74;

AINSWORTH      MOSUNNY   70  43  37 NW17G29   30.04S
BROKEN BOW     MOSUNNY   79  43  27 NW21G32   30.03S
6HR MIN TEMP:  54; 6HR MAX TEMP:  79;

O`NEILL        SUNNY     71  40  32 NW18G26   30.00S
ORD            SUNNY     76  45  33 NW21G30   29.99R
6HR MIN TEMP:  50; 6HR MAX TEMP:  76;

THEDFORD       PTSUNNY   72  44  35 NW14G23   30.07S
$$

NEZ041-046>049-061>064-073>077-083>087-281900-
SOUTH CENTRAL NEBRASKA

CITY           SKY/WX    TMP DP  RH WIND       PRES   REMARKS
GRAND ISLAND   SUNNY     80  43  26 NW18G30   29.99F
6HR MIN TEMP:  54; 6HR MAX TEMP:  80;

AURORA         PTSUNNY   79  38  22 NW20G39   29.98F
HASTINGS       MOSUNNY   77  39  25 NW20G28   30.02S
6HR MIN TEMP:  54; 6HR MAX TEMP:  79;

HEBRON         SUNNY     78  44  30 NW9       30.00F
HOLDREGE       SUNNY     76  37  24 NW16G23   30.05S
KEARNEY *      MOSUNNY   79  39  24 NW18G29   30.03S
YORK           SUNNY     79  39  24 NW20G28   29.96F
$$

NEZ011>018-030>034-042>045-281900-
NORTHEAST NEBRASKA

CITY           SKY/WX    TMP DP  RH WIND       PRES   REMARKS
NORFOLK        SUNNY     74  46  36 NW23G32   29.92R
6HR MIN TEMP:  52; 6HR MAX TEMP:  75;

ALBION         SUNNY     75  49  40 NW20G26   29.97R
BLAIR          MOSUNNY   78  44  29 W12G28    29.91S
FREMONT        PTSUNNY   79  42  27 W15G30    29.91F
TEKAMAH        MOSUNNY   80  41  24 W13G26    29.87F
6HR MIN TEMP:  56; 6HR MAX TEMP:  81;

WAYNE          SUNNY     75  41  29 N22G29    29.92R
$$

NEZ050>053-065>068-078-088>093-281900-
SOUTHEAST NEBRASKA

CITY           SKY/WX    TMP DP  RH WIND       PRES   REMARKS
LINCOLN        MOSUNNY   80  43  26 W9        29.95F
6HR MIN TEMP:  58; 6HR MAX TEMP:  80;

OMAHA EPPLEY   MOSUNNY   77  49  37 W9        29.90F
6HR MIN TEMP:  57; 6HR MAX TEMP:  79;

BEATRICE       SUNNY     77  47  35 NW10      29.98S
FALLS CITY     SUNNY     76  53  44 NW13      29.95S
6HR MIN TEMP:  57; 6HR MAX TEMP:  76;

NEBRASKA CITY  SUNNY     76  41  28 W9        29.95S
PLATTSMOUTH    SUNNY     76  49  38 W8        29.93F
$$

NEZ044-045-051>053-067-281900-
OMAHA AREA

CITY           SKY/WX    TMP DP  RH WIND       PRES   REMARKS
OMAHA EPPLEY   MOSUNNY   77  49  37 W9        29.90F
6HR MIN TEMP:  57; 6HR MAX TEMP:  79;

BLAIR          MOSUNNY   78  44  29 W12G28    29.91S
FREMONT        PTSUNNY   79  42  27 W15G30    29.91F
MILLARD        PTSUNNY   78  48  35 W10G17    29.91F
OFFUTT AFB     SUNNY     77  50  38 SW9       29.91F
PLATTSMOUTH    SUNNY     76  49  38 W8        29.93F
WAHOO          CLOUDY    79  40  25 NW13G18   29.92F
$$




USA.gov is the U.S. government's official web portal to all federal, state and local government web resources and services.